Big Piney, WY

10:23 PM MDT on July 25, 2017 (GMT -0600)
Big Piney-Marbleton

Weather History for KBPI - October, 2011

Change the Weather History Date:

Sunday, October 16, 2011

  Actual Average Record
Temperature  
Mean Temperature 47 °F 38 °F  
Max Temperature 66 °F 56 °F 70 °F (2015)
Min Temperature 28 °F 21 °F 9 °F (1999)
Degree Days  
Heating Degree Days 18 27  
Month to date heating degree days 381  
Since 1 July heating degree days 1132  
Cooling Degree Days 0 0  
Month to date cooling degree days 0  
Year to date cooling degree days 35  
Moisture  
Dew Point 32 °F    
Average Humidity 63    
Maximum Humidity 89    
Minimum Humidity 25    
Precipitation  
Precipitation 0.02 in 0.02 in 0.69 in (2016)
Month to date precipitation 0.34  
Year to date precipitation 5.78  
Sea Level Pressure  
Sea Level Pressure 29.98 in    
Wind  
Wind Speed 6 mph (WNW)    
Max Wind Speed 29 mph    
Max Gust Speed 37 mph    
Visibility 10 miles    
Events Rain    
T = Trace of Precipitation, MM = Missing Value Source: NWS Daily Summary

Daily Weather History Graph

Daily Weather History Graph

Search for Another Location

Airport or City:

Trip Planner

Search our weather history database for the weather conditions in past years. The results will help you decide how hot, cold, wet, or windy it might be!

Date:

Astronomy

Oct. 16, 2011 Rise Set
Actual Time 7:34 AM MDT 6:36 PM MDT
Civil Twilight 7:06 AM MDT 7:05 PM MDT
Nautical Twilight 6:33 AM MDT 7:37 PM MDT
Astronomical Twilight 6:00 AM MDT 8:10 PM MDT
Moon 9:20 PM MDT (10/16) 12:00 PM MDT (10/16)
Length of Visible Light 11h 59m
Length of Day
11h 02m
Waning Gibbous, 82% of the Moon is Illuminated
Oct 16
Waning Gibbous
Oct 19
Last Quarter
Oct 26
New
Nov 2
First Quarter
Nov 10
Full

Hourly Weather History & Observations

Time (MDT) Temp. Windchill Dew Point Humidity Pressure Visibility Wind Dir Wind Speed Gust Speed Precip Events Conditions
12:53 AM 39.0 °F 35.7 °F 30.0 °F 70% 29.95 in 10.0 mi NE 4.6 mph - N/A   Clear
1:53 AM 39.9 °F - 30.9 °F 70% 29.93 in 10.0 mi Calm Calm - N/A   Clear
2:53 AM 36.0 °F 32.1 °F 30.0 °F 79% 29.96 in 10.0 mi SW 4.6 mph - N/A   Clear
3:53 AM 36.0 °F 31.1 °F 30.0 °F 79% 29.95 in 10.0 mi NNW 5.8 mph - N/A   Clear
4:53 AM 32.0 °F - 28.4 °F 87% 30.14 in 10.0 mi Calm Calm - N/A   Clear
5:53 AM 30.9 °F 26.2 °F 27.0 °F 85% 30.01 in 10.0 mi NE 4.6 mph - N/A   Clear
6:53 AM 28.9 °F 25.2 °F 26.1 °F 89% 30.04 in 10.0 mi NNW 3.5 mph - N/A   Clear
7:53 AM 28.9 °F - 26.1 °F 89% 30.09 in 10.0 mi Calm Calm - N/A   Clear
8:53 AM 36.0 °F - 30.0 °F 79% 30.08 in 10.0 mi Calm Calm - N/A   Clear
9:53 AM 44.1 °F - 32.0 °F 63% 30.05 in 10.0 mi Calm Calm - N/A   Clear
10:53 AM 48.9 °F - 33.1 °F 54% 30.01 in 10.0 mi East 3.5 mph - N/A   Clear
11:53 AM 54.0 °F - 33.1 °F 45% 29.98 in 10.0 mi South 4.6 mph - N/A   Clear
12:53 PM 60.8 °F - 33.8 °F 36% 30.11 in 10.0 mi Variable 4.6 mph - N/A   Partly Cloudy
1:53 PM 66.0 °F - 28.9 °F 25% 29.89 in 10.0 mi WNW 19.6 mph 29.9 mph N/A   Overcast
2:53 PM 61.0 °F - 30.9 °F 32% 29.91 in 10.0 mi West 12.7 mph 21.9 mph N/A   Mostly Cloudy
3:53 PM 59.0 °F - 30.9 °F 35% 29.94 in 10.0 mi West 26.5 mph 36.8 mph N/A   Partly Cloudy
4:53 PM 55.0 °F - 33.1 °F 43% 29.95 in 10.0 mi WSW 28.8 mph 35.7 mph N/A   Clear
5:53 PM 54.0 °F - 32.0 °F 43% 29.94 in 10.0 mi West 17.3 mph 26.5 mph N/A   Clear
6:53 PM 52.0 °F - 32.0 °F 47% 29.97 in 10.0 mi South 9.2 mph - N/A   Mostly Cloudy
7:53 PM 48.0 °F - 32.0 °F 54% 29.98 in 10.0 mi WSW 13.8 mph - N/A   Partly Cloudy
8:53 PM 46.9 °F - 32.0 °F 56% 29.95 in 10.0 mi Calm Calm - N/A   Mostly Cloudy
9:53 PM 46.0 °F 39.6 °F 37.9 °F 73% 29.92 in 10.0 mi NNE 15.0 mph - N/A   Overcast
10:53 PM 42.1 °F 36.6 °F 39.0 °F 89% 29.95 in 10.0 mi NNW 9.2 mph - 0.02 in Rain Light Rain
11:53 PM 41.0 °F 39.0 °F 37.9 °F 89% 29.92 in 10.0 mi WNW 3.5 mph - 0.00 in   Overcast